| time (UTC) | temp C | wind direction | speed KPH | gust KPH | rain 1hr cm | rain 24hr cm | rain mn cm | humidity % | barometer mb |
| 20260505163530 | 15 | 251 | 0.0 | 1.6 | 0.05 | 0.13 | 0.13 | 90 | 1007.3 |
| 20260505163029 | 15 | 251 | 0.0 | 4.8 | 0.05 | 0.10 | 0.10 | 90 | 1007.3 |
| 20260505162528 | 15 | 251 | 0.0 | 6.4 | 0.05 | 0.10 | 0.10 | 90 | 1007.3 |
| 20260505162028 | 15 | 251 | 1.6 | 6.4 | 0.08 | 0.10 | 0.10 | 90 | 1007.3 |
| 20260505161530 | 15 | 251 | 0.0 | 3.2 | 0.08 | 0.10 | 0.10 | 90 | 1007.4 |
| 20260505161029 | 15 | 251 | 0.0 | 6.4 | 0.08 | 0.10 | 0.10 | 90 | 1007.3 |
| 20260505160528 | 15 | 250 | 0.0 | 6.4 | 0.08 | 0.10 | 0.10 | 90 | 1007.4 |
| 20260505153027 | 15 | 234 | 12.9 | 20.9 | 0.05 | 0.05 | 0.05 | 88 | 1007.4 |
| 20260505152526 | 15 | 245 | 12.9 | 25.7 | 0.05 | 0.05 | 0.05 | 87 | 1007.3 |
| 20260505152026 | 15 | 247 | 16.1 | 27.4 | 0.03 | 0.03 | 0.03 | 86 | 1007.2 |
| 20260505151526 | 16 | 205 | 17.7 | 27.4 | 0.03 | 0.03 | 0.03 | 86 | 1007.3 |
| 20260505151026 | 16 | 243 | 17.7 | 29.0 | 0.03 | 0.03 | 0.03 | 84 | 1007.2 |
| 20260505150526 | 16 | 237 | 14.5 | 32.2 | 0.03 | 0.03 | 0.03 | 81 | 1007.2 |
| 20260505140521 | 21 | 167 | 1.6 | 8.0 | 0.00 | 0.00 | 0.00 | 56 | 1006.8 |
| 20260505125016 | 21 | 152 | 0.0 | 4.8 | 0.00 | 0.00 | 0.00 | 59 | 1007.6 |
| 20260505124523 | 20 | 152 | 1.6 | 4.8 | 0.00 | 0.00 | 0.00 | 57 | 1007.6 |
| 20260505124015 | 21 | 152 | 1.6 | 4.8 | 0.00 | 0.00 | 0.00 | 57 | 1007.6 |
| 20260505123515 | 21 | 152 | 1.6 | 8.0 | 0.00 | 0.00 | 0.00 | 56 | 1007.6 |
| 20260505123014 | 21 | 152 | 3.2 | 8.0 | 0.00 | 0.00 | 0.00 | 54 | 1007.7 |
| 20260505122514 | 21 | 151 | 0.0 | 3.2 | 0.00 | 0.00 | 0.00 | 53 | 1007.8 |
| 20260505122017 | 21 | 151 | 1.6 | 3.2 | 0.00 | 0.00 | 0.00 | 53 | 1007.7 |
| 20260505121515 | 21 | 151 | 1.6 | 3.2 | 0.00 | 0.00 | 0.00 | 54 | 1007.8 |
| 20260505121015 | 21 | 151 | 0.0 | 4.8 | 0.00 | 0.00 | 0.00 | 56 | 1007.9 |
| 20260505120513 | 21 | 151 | 1.6 | 9.7 | 0.00 | 0.00 | 0.00 | 52 | 1007.9 |
| 20260505120012 | 21 | 151 | 1.6 | 4.8 | 0.00 | 0.00 | 0.00 | 54 | 1007.9 |
| 20260505115511 | 21 | 151 | 1.6 | 8.0 | 0.00 | 0.00 | 0.00 | 54 | 1008.0 |
| 20260505115012 | 21 | 151 | 3.2 | 8.0 | 0.00 | 0.00 | 0.00 | 53 | 1008.0 |
| 20260505114510 | 22 | 153 | 0.0 | 4.8 | 0.00 | 0.00 | 0.00 | 54 | 1008.1 |
| 20260505114009 | 21 | 153 | 1.6 | 8.0 | 0.00 | 0.00 | 0.00 | 56 | 1008.2 |
| 20260505113508 | 21 | 153 | 3.2 | 9.7 | 0.00 | 0.00 | 0.00 | 54 | 1008.2 |
| 20260505113007 | 21 | 150 | 3.2 | 9.7 | 0.00 | 0.00 | 0.00 | 55 | 1008.3 |
| 20260505112507 | 21 | 127 | 3.2 | 6.4 | 0.00 | 0.00 | 0.00 | 56 | 1008.4 |
| 20260505112007 | 21 | 120 | 1.6 | 9.7 | 0.00 | 0.00 | 0.00 | 57 | 1008.3 |
| 20260505111506 | 21 | 132 | 1.6 | 8.0 | 0.00 | 0.00 | 0.00 | 56 | 1008.4 |
| 20260505111010 | 21 | 131 | 3.2 | 8.0 | 0.00 | 0.00 | 0.00 | 56 | 1008.5 |
| 20260505110506 | 21 | 135 | 1.6 | 8.0 | 0.00 | 0.00 | 0.00 | 57 | 1008.6 |
| 20260505102002 | 19 | 138 | 1.6 | 6.4 | 0.00 | 0.00 | 0.00 | 62 | 1009.0 |
| 20260505101501 | 20 | 138 | 3.2 | 6.4 | 0.00 | 0.00 | 0.00 | 62 | 1008.9 |
| 20260505101100 | 20 | 138 | 1.6 | 6.4 | 0.00 | 0.00 | 0.00 | 59 | 1009.0 |
| 20260505100600 | 20 | 138 | 1.6 | 6.4 | 0.00 | 0.00 | 0.00 | 57 | 1009.0 |
| 20260505095558 | 19 | 140 | 3.2 | 8.0 | 0.00 | 0.00 | 0.00 | 60 | 1009.1 |
| 20260505095057 | 20 | 142 | 3.2 | 8.0 | 0.00 | 0.00 | 0.00 | 61 | 1009.1 |
| 20260505094558 | 20 | 143 | 3.2 | 6.4 | 0.00 | 0.00 | 0.00 | 62 | 1009.2 |
| 20260505094057 | 20 | 153 | 1.6 | 9.7 | 0.00 | 0.00 | 0.00 | 66 | 1009.2 |
| 20260505093557 | 20 | 153 | 3.2 | 9.7 | 0.00 | 0.00 | 0.00 | 66 | 1009.4 |
| 20260505093105 | 20 | 254 | 1.6 | 6.4 | 0.00 | 0.00 | 0.00 | 67 | 1009.4 |
| 20260505092554 | 20 | 259 | 1.6 | 6.4 | 0.00 | 0.00 | 0.00 | 64 | 1009.5 |
| 20260505092057 | 20 | 259 | 1.6 | 6.4 | 0.00 | 0.00 | 0.00 | 66 | 1009.5 |
| 20260505091553 | 20 | 259 | 3.2 | 9.7 | 0.00 | 0.00 | 0.00 | 67 | 1009.5 |
| 20260505091051 | 20 | 262 | 3.2 | 9.7 | 0.00 | 0.00 | 0.00 | 69 | 1009.7 |
| 20260505090550 | 19 | 336 | 1.6 | 6.4 | 0.00 | 0.00 | 0.00 | 71 | 1009.7 |
| 20260505090050 | 18 | 335 | 1.6 | 4.8 | 0.00 | 0.00 | 0.00 | 73 | 1009.6 |
| 20260505085549 | 18 | 336 | 1.6 | 4.8 | 0.00 | 0.00 | 0.00 | 72 | 1009.7 |
| 20260505085052 | 18 | 336 | 0.0 | 4.8 | 0.00 | 0.00 | 0.00 | 72 | 1009.8 |
| 20260505084552 | 18 | 336 | 0.0 | 4.8 | 0.00 | 0.00 | 0.00 | 74 | 1009.8 |
| 20260505084047 | 18 | 336 | 0.0 | 4.8 | 0.00 | 0.00 | 0.00 | 75 | 1009.8 |
| 20260505083544 | 17 | 336 | 0.0 | 3.2 | 0.00 | 0.00 | 0.00 | 78 | 1009.9 |
| 20260505083050 | 17 | 336 | 0.0 | 4.8 | 0.00 | 0.00 | 0.00 | 79 | 1009.9 |
| 20260505082543 | 17 | 336 | 1.6 | 6.4 | 0.00 | 0.00 | 0.00 | 78 | 1010.0 |
| 20260505082042 | 17 | 336 | 1.6 | 6.4 | 0.00 | 0.00 | 0.00 | 78 | 1009.9 |
| 20260505081547 | 17 | 336 | 0.0 | 3.2 | 0.00 | 0.00 | 0.00 | 79 | 1010.1 |
| 20260505081040 | 16 | 336 | 0.0 | 3.2 | 0.00 | 0.00 | 0.00 | 81 | 1010.1 |
| 20260505080539 | 16 | 336 | 1.6 | 3.2 | 0.00 | 0.00 | 0.00 | 79 | 1010.2 |
| 20260505080038 | 16 | 336 | 0.0 | 3.2 | 0.00 | 0.00 | 0.00 | 81 | 1010.2 |
| 20260505075537 | 15 | 336 | 0.0 | 3.2 | 0.00 | 0.00 | 0.00 | 82 | 1010.2 |
| 20260505075037 | 15 | 336 | 0.0 | 3.2 | 0.00 | 0.00 | 0.00 | 82 | 1010.2 |
| 20260505074537 | 15 | 336 | 0.0 | 3.2 | 0.00 | 0.00 | 0.00 | 82 | 1010.3 |
| 20260505074036 | 15 | 336 | 0.0 | 3.2 | 0.00 | 0.00 | 0.00 | 83 | 1010.4 |
| 20260505073536 | 15 | 336 | 0.0 | 3.2 | 0.00 | 0.00 | 0.00 | 84 | 1010.3 |
| 20260505073036 | 15 | 336 | 0.0 | 3.2 | 0.00 | 0.00 | 0.00 | 85 | 1010.3 |
| 20260505072532 | 15 | 336 | 0.0 | 3.2 | 0.00 | 0.00 | 0.00 | 86 | 1010.3 |
| 20260505072034 | 15 | 336 | 0.0 | 3.2 | 0.00 | 0.00 | 0.00 | 86 | 1010.3 |
| 20260505071531 | 14 | 336 | 0.0 | 3.2 | 0.00 | 0.00 | 0.00 | 86 | 1010.3 |
| 20260505071031 | 14 | 336 | 0.0 | 3.2 | 0.00 | 0.00 | 0.00 | 87 | 1010.3 |
| 20260505070534 | 14 | 336 | 0.0 | 3.2 | 0.00 | 0.00 | 0.00 | 88 | 1010.2 |
| 20260505070040 | 14 | 336 | 0.0 | 4.8 | 0.00 | 0.00 | 0.00 | 88 | 1010.2 |
| 20260505065530 | 13 | 336 | 1.6 | 4.8 | 0.00 | 0.00 | 0.00 | 88 | 1010.3 |
| 20260505065029 | 13 | 336 | 1.6 | 4.8 | 0.00 | 0.00 | 0.00 | 88 | 1010.2 |
| 20260505064529 | 13 | 336 | 1.6 | 4.8 | 0.00 | 0.00 | 0.00 | 88 | 1010.3 |
| 20260505064029 | 13 | 336 | 1.6 | 4.8 | 0.00 | 0.00 | 0.00 | 89 | 1010.3 |
| 20260505063529 | 13 | 336 | 3.2 | 6.4 | 0.00 | 0.00 | 0.00 | 89 | 1010.2 |
| 20260505063033 | 13 | 336 | 1.6 | 6.4 | 0.00 | 0.00 | 0.00 | 89 | 1010.2 |
| 20260505062529 | 13 | 336 | 1.6 | 6.4 | 0.00 | 0.00 | 0.00 | 89 | 1010.2 |
| 20260505062028 | 13 | 336 | 1.6 | 6.4 | 0.00 | 0.00 | 0.00 | 89 | 1010.3 |
| 20260505061528 | 13 | 336 | 3.2 | 4.8 | 0.00 | 0.00 | 0.00 | 89 | 1010.3 |
| 20260505061028 | 13 | 336 | 1.6 | 4.8 | 0.00 | 0.00 | 0.00 | 89 | 1010.3 |
| 20260505060528 | 13 | 336 | 0.0 | 4.8 | 0.00 | 0.00 | 0.00 | 89 | 1010.3 |
| 20260505060035 | 13 | 336 | 1.6 | 6.4 | 0.00 | 0.00 | 0.00 | 90 | 1010.3 |
| 20260505055528 | 13 | 336 | 3.2 | 4.8 | 0.00 | 0.00 | 0.00 | 90 | 1010.3 |
| 20260505055028 | 13 | 336 | 1.6 | 6.4 | 0.00 | 0.00 | 0.00 | 91 | 1010.3 |
| 20260505054528 | 13 | 336 | 1.6 | 6.4 | 0.00 | 0.00 | 0.00 | 91 | 1010.3 |
| 20260505054030 | 13 | 336 | 1.6 | 6.4 | 0.00 | 0.00 | 0.00 | 91 | 1010.2 |
| 20260505053531 | 13 | 336 | 1.6 | 4.8 | 0.00 | 0.00 | 0.00 | 91 | 1010.3 |
| 20260505053035 | 13 | 336 | 1.6 | 4.8 | 0.00 | 0.00 | 0.00 | 91 | 1010.3 |
| 20260505052526 | 13 | 336 | 1.6 | 6.4 | 0.00 | 0.00 | 0.00 | 91 | 1010.2 |
| 20260505052029 | 13 | 336 | 1.6 | 6.4 | 0.00 | 0.00 | 0.00 | 92 | 1010.2 |
| 20260505051526 | 13 | 336 | 1.6 | 6.4 | 0.00 | 0.00 | 0.00 | 92 | 1010.1 |
| 20260505051026 | 13 | 336 | 1.6 | 4.8 | 0.00 | 0.00 | 0.00 | 92 | 1010.1 |
| 20260505050527 | 13 | 336 | 1.6 | 4.8 | 0.00 | 0.00 | 0.00 | 92 | 1010.2 |
| 20260505041524 | 12 | 336 | 0.0 | 0.0 | 0.00 | 0.00 | 0.00 | 91 | 1010.5 |
| 20260505041024 | 12 | 336 | 0.0 | 0.0 | 0.00 | 0.00 | 0.00 | 91 | 1010.3 |
| 20260505040523 | 12 | 336 | 0.0 | 0.0 | 0.00 | 0.00 | 0.00 | 91 | 1010.3 |
| 20260505040023 | 12 | 336 | 0.0 | 0.0 | 0.00 | 0.00 | 0.00 | 91 | 1010.4 |
| 20260505035522 | 12 | 336 | 0.0 | 0.0 | 0.00 | 0.00 | 0.00 | 91 | 1010.4 |
| 20260505035022 | 12 | 336 | 0.0 | 0.0 | 0.00 | 0.00 | 0.00 | 91 | 1010.4 |
| 20260505034525 | 12 | 336 | 0.0 | 0.0 | 0.00 | 0.00 | 0.00 | 91 | 1010.3 |
| 20260505034022 | 12 | 336 | 0.0 | 3.2 | 0.00 | 0.00 | 0.00 | 91 | 1010.4 |
| 20260505033525 | 12 | 336 | 0.0 | 3.2 | 0.00 | 0.00 | 0.00 | 91 | 1010.4 |
| 20260505033022 | 12 | 336 | 0.0 | 0.0 | 0.00 | 0.00 | 0.00 | 91 | 1010.4 |
| 20260505032520 | 13 | 336 | 0.0 | 4.8 | 0.00 | 0.00 | 0.00 | 91 | 1010.5 |
| 20260505032019 | 13 | 336 | 0.0 | 4.8 | 0.00 | 0.00 | 0.00 | 91 | 1010.6 |
| 20260505031520 | 13 | 336 | 1.6 | 4.8 | 0.00 | 0.00 | 0.00 | 91 | 1010.7 |
| 20260505031019 | 13 | 336 | 1.6 | 4.8 | 0.00 | 0.00 | 0.00 | 91 | 1010.8 |
| 20260505030519 | 13 | 336 | 0.0 | 3.2 | 0.00 | 0.00 | 0.00 | 91 | 1010.8 |
| 20260505030019 | 13 | 336 | 1.6 | 4.8 | 0.00 | 0.00 | 0.00 | 91 | 1010.8 |
| 20260505025520 | 13 | 336 | 1.6 | 4.8 | 0.00 | 0.00 | 0.00 | 91 | 1010.8 |
| 20260505025018 | 13 | 336 | 1.6 | 4.8 | 0.00 | 0.00 | 0.00 | 91 | 1010.8 |
| 20260505024518 | 13 | 336 | 1.6 | 4.8 | 0.00 | 0.00 | 0.00 | 91 | 1010.9 |
| 20260505024021 | 13 | 336 | 1.6 | 4.8 | 0.00 | 0.00 | 0.00 | 92 | 1011.0 |
| 20260505023517 | 13 | 336 | 1.6 | 4.8 | 0.00 | 0.00 | 0.00 | 92 | 1011.0 |
| 20260505023016 | 13 | 336 | 1.6 | 4.8 | 0.00 | 0.00 | 0.00 | 92 | 1011.1 |
| 20260505022516 | 13 | 336 | 0.0 | 4.8 | 0.00 | 0.00 | 0.00 | 92 | 1011.1 |
| 20260505022016 | 13 | 336 | 1.6 | 4.8 | 0.00 | 0.00 | 0.00 | 92 | 1011.2 |
| 20260505021516 | 13 | 336 | 1.6 | 4.8 | 0.00 | 0.00 | 0.00 | 92 | 1011.3 |
| 20260505021015 | 12 | 336 | 1.6 | 4.8 | 0.00 | 0.00 | 0.00 | 92 | 1011.3 |
| 20260505020514 | 12 | 336 | 1.6 | 3.2 | 0.00 | 0.00 | 0.00 | 92 | 1011.3 |
| 20260505020015 | 12 | 336 | 0.0 | 3.2 | 0.00 | 0.00 | 0.00 | 92 | 1011.4 |
| 20260505015514 | 12 | 336 | 0.0 | 1.6 | 0.00 | 0.00 | 0.00 | 92 | 1011.4 |
| 20260505015014 | 12 | 336 | 0.0 | 0.0 | 0.00 | 0.00 | 0.00 | 92 | 1011.3 |
| 20260505014513 | 12 | 336 | 0.0 | 0.0 | 0.00 | 0.00 | 0.00 | 92 | 1011.4 |
| 20260505014013 | 12 | 336 | 0.0 | 0.0 | 0.00 | 0.00 | 0.00 | 92 | 1011.4 |
| 20260505013513 | 12 | 336 | 0.0 | 0.0 | 0.00 | 0.00 | 0.00 | 92 | 1011.5 |
| 20260505013012 | 12 | 336 | 0.0 | 1.6 | 0.00 | 0.00 | 0.00 | 92 | 1011.4 |
| 20260505012512 | 12 | 336 | 0.0 | 3.2 | 0.00 | 0.00 | 0.00 | 92 | 1011.4 |
| 20260505012012 | 13 | 336 | 1.6 | 3.2 | 0.00 | 0.00 | 0.00 | 92 | 1011.5 |
| 20260505011520 | 13 | 336 | 0.0 | 3.2 | 0.00 | 0.00 | 0.00 | 91 | 1011.6 |
| 20260505011010 | 13 | 336 | 0.0 | 3.2 | 0.00 | 0.00 | 0.00 | 92 | 1011.6 |
| 20260505010514 | 13 | 336 | 1.6 | 3.2 | 0.00 | 0.00 | 0.00 | 92 | 1011.5 |
| 20260505010014 | 13 | 336 | 0.0 | 3.2 | 0.00 | 0.00 | 0.00 | 91 | 1011.6 |
| 20260505005511 | 13 | 336 | 1.6 | 3.2 | 0.00 | 0.00 | 0.00 | 91 | 1011.7 |
| 20260505005007 | 13 | 336 | 1.6 | 3.2 | 0.00 | 0.00 | 0.00 | 91 | 1011.9 |
| 20260505004507 | 13 | 336 | 0.0 | 3.2 | 0.00 | 0.00 | 0.00 | 91 | 1011.8 |
| 20260505004006 | 13 | 336 | 1.6 | 3.2 | 0.00 | 0.00 | 0.00 | 91 | 1011.9 |
| 20260505003505 | 13 | 336 | 0.0 | 3.2 | 0.00 | 0.00 | 0.00 | 91 | 1011.9 |
| 20260505003005 | 13 | 336 | 0.0 | 3.2 | 0.00 | 0.00 | 0.00 | 91 | 1012.0 |
| 20260505002504 | 13 | 336 | 0.0 | 3.2 | 0.00 | 0.00 | 0.00 | 91 | 1012.0 |
| 20260505002007 | 13 | 336 | 1.6 | 3.2 | 0.00 | 0.00 | 0.00 | 91 | 1012.2 |
| 20260505001503 | 13 | 336 | 0.0 | 3.2 | 0.00 | 0.00 | 0.00 | 91 | 1012.3 |
| 20260505001005 | 13 | 336 | 0.0 | 3.2 | 0.00 | 0.00 | 0.00 | 91 | 1012.3 |
| 20260505000505 | 13 | 336 | 1.6 | 3.2 | 0.00 | 0.00 | 0.00 | 91 | 1012.2 |
| 20260505000003 | 13 | 336 | 1.6 | 3.2 | 0.00 | 0.00 | 0.00 | 91 | 1012.3 |
| 20260504235503 | 13 | 336 | 0.0 | 4.8 | 0.00 | 0.00 | 0.00 | 91 | 1012.2 |
| 20260504235003 | 13 | 336 | 1.6 | 6.4 | 0.00 | 0.00 | 0.00 | 90 | 1012.3 |
| 20260504234501 | 13 | 336 | 1.6 | 4.8 | 0.00 | 0.00 | 0.00 | 90 | 1012.5 |
| 20260504234100 | 13 | 336 | 0.0 | 4.8 | 0.00 | 0.00 | 0.00 | 90 | 1012.4 |
| 20260504233602 | 13 | 336 | 1.6 | 4.8 | 0.00 | 0.00 | 0.00 | 90 | 1012.3 |
| 20260504233112 | 13 | 336 | 0.0 | 4.8 | 0.00 | 0.00 | 0.00 | 90 | 1012.4 |
| 20260504232559 | 13 | 336 | 0.0 | 6.4 | 0.00 | 0.00 | 0.00 | 90 | 1012.5 |
| 20260504232059 | 13 | 336 | 3.2 | 4.8 | 0.00 | 0.00 | 0.00 | 89 | 1012.6 |
| 20260504231559 | 13 | 336 | 1.6 | 4.8 | 0.00 | 0.00 | 0.00 | 89 | 1012.7 |
| 20260504231056 | 13 | 336 | 1.6 | 8.0 | 0.00 | 0.00 | 0.00 | 89 | 1012.8 |
| 20260504230558 | 13 | 336 | 1.6 | 8.0 | 0.00 | 0.00 | 0.00 | 89 | 1012.9 |
| 20260504230057 | 13 | 336 | 0.0 | 8.0 | 0.00 | 0.00 | 0.00 | 88 | 1013.0 |
| 20260504225556 | 14 | 336 | 3.2 | 8.0 | 0.00 | 0.00 | 0.00 | 88 | 1013.1 |
| 20260504225054 | 14 | 336 | 1.6 | 6.4 | 0.00 | 0.00 | 0.00 | 88 | 1013.0 |
| 20260504224553 | 14 | 336 | 1.6 | 6.4 | 0.00 | 0.00 | 0.00 | 87 | 1013.1 |
| 20260504224053 | 14 | 337 | 1.6 | 6.4 | 0.00 | 0.00 | 0.00 | 87 | 1013.2 |
| 20260504223553 | 14 | 337 | 0.0 | 6.4 | 0.00 | 0.00 | 0.00 | 87 | 1013.3 |
| 20260504223052 | 14 | 337 | 1.6 | 6.4 | 0.00 | 0.00 | 0.00 | 87 | 1013.2 |
| 20260504222556 | 14 | 337 | 1.6 | 6.4 | 0.00 | 0.00 | 0.00 | 87 | 1013.2 |
| 20260504222051 | 14 | 337 | 0.0 | 1.6 | 0.00 | 0.00 | 0.00 | 87 | 1013.2 |
| 20260504221550 | 14 | 337 | 0.0 | 1.6 | 0.00 | 0.00 | 0.00 | 87 | 1013.3 |
| 20260504221050 | 14 | 337 | 0.0 | 1.6 | 0.00 | 0.00 | 0.00 | 87 | 1013.2 |
| 20260504220549 | 14 | 337 | 0.0 | 1.6 | 0.00 | 0.00 | 0.00 | 87 | 1013.2 |
| 20260504220048 | 14 | 337 | 0.0 | 1.6 | 0.00 | 0.00 | 0.00 | 87 | 1013.3 |
| 20260504215548 | 14 | 337 | 0.0 | 4.8 | 0.00 | 0.00 | 0.00 | 87 | 1013.3 |
| 20260504215048 | 14 | 337 | 0.0 | 4.8 | 0.00 | 0.00 | 0.00 | 86 | 1013.4 |
| 20260504214549 | 14 | 337 | 0.0 | 3.2 | 0.00 | 0.00 | 0.00 | 86 | 1013.3 |
| 20260504214048 | 14 | 337 | 0.0 | 0.0 | 0.00 | 0.00 | 0.00 | 86 | 1013.4 |
| 20260504213548 | 14 | 337 | 0.0 | 0.0 | 0.00 | 0.00 | 0.00 | 86 | 1013.3 |
| 20260504213050 | 14 | 337 | 0.0 | 3.2 | 0.00 | 0.00 | 0.00 | 86 | 1013.4 |
| 20260504212547 | 14 | 337 | 0.0 | 3.2 | 0.00 | 0.00 | 0.00 | 86 | 1013.4 |
| 20260504212048 | 14 | 337 | 0.0 | 1.6 | 0.00 | 0.00 | 0.00 | 86 | 1013.4 |
| 20260504211547 | 14 | 337 | 0.0 | 1.6 | 0.00 | 0.00 | 0.00 | 86 | 1013.5 |
| 20260504211047 | 14 | 337 | 0.0 | 1.6 | 0.00 | 0.00 | 0.00 | 86 | 1013.5 |
| 20260504210547 | 14 | 337 | 0.0 | 3.2 | 0.00 | 0.00 | 0.00 | 86 | 1013.5 |
| 20260504210047 | 14 | 337 | 0.0 | 3.2 | 0.00 | 0.00 | 0.00 | 86 | 1013.5 |
| 20260504205547 | 15 | 337 | 0.0 | 3.2 | 0.00 | 0.00 | 0.00 | 85 | 1013.6 |
| 20260504205047 | 15 | 337 | 0.0 | 3.2 | 0.00 | 0.00 | 0.00 | 85 | 1013.5 |
| 20260504204547 | 15 | 337 | 0.0 | 4.8 | 0.00 | 0.00 | 0.00 | 85 | 1013.5 |
| 20260504204046 | 15 | 337 | 0.0 | 4.8 | 0.00 | 0.00 | 0.00 | 85 | 1013.4 |
| 20260504203547 | 15 | 337 | 0.0 | 4.8 | 0.00 | 0.00 | 0.00 | 85 | 1013.4 |
| 20260504203049 | 15 | 337 | 0.0 | 3.2 | 0.00 | 0.00 | 0.00 | 85 | 1013.4 |
| 20260504202546 | 15 | 337 | 0.0 | 6.4 | 0.00 | 0.00 | 0.00 | 84 | 1013.4 |
| 20260504202048 | 15 | 337 | 1.6 | 6.4 | 0.00 | 0.00 | 0.00 | 84 | 1013.2 |
| 20260504201546 | 15 | 337 | 3.2 | 6.4 | 0.00 | 0.00 | 0.00 | 84 | 1013.3 |
| 20260504201045 | 15 | 337 | 0.0 | 4.8 | 0.00 | 0.00 | 0.00 | 84 | 1013.2 |
| 20260504200546 | 15 | 337 | 1.6 | 4.8 | 0.00 | 0.00 | 0.00 | 84 | 1013.2 |
| 20260504200045 | 15 | 337 | 1.6 | 3.2 | 0.00 | 0.00 | 0.00 | 84 | 1013.3 |
| 20260504195544 | 15 | 337 | 0.0 | 4.8 | 0.00 | 0.00 | 0.00 | 84 | 1013.2 |
| 20260504195045 | 15 | 337 | 0.0 | 3.2 | 0.00 | 0.00 | 0.00 | 84 | 1013.1 |
| 20260504194548 | 15 | 337 | 0.0 | 4.8 | 0.00 | 0.00 | 0.00 | 83 | 1013.1 |
| 20260504194045 | 15 | 337 | 1.6 | 4.8 | 0.00 | 0.00 | 0.00 | 83 | 1013.1 |
| 20260504193544 | 15 | 337 | 1.6 | 8.0 | 0.00 | 0.00 | 0.00 | 83 | 1013.1 |
| 20260504193044 | 15 | 337 | 1.6 | 8.0 | 0.00 | 0.00 | 0.00 | 82 | 1013.0 |
| 20260504192545 | 15 | 337 | 0.0 | 1.6 | 0.00 | 0.00 | 0.00 | 82 | 1013.0 |
| 20260504192044 | 16 | 337 | 0.0 | 3.2 | 0.00 | 0.00 | 0.00 | 81 | 1013.2 |
| 20260504191559 | 16 | 337 | 0.0 | 4.8 | 0.00 | 0.00 | 0.00 | 81 | 1013.0 |
| 20260504191044 | 16 | 337 | 1.6 | 6.4 | 0.00 | 0.00 | 0.00 | 80 | 1013.0 |
| 20260504190547 | 16 | 338 | 1.6 | 6.4 | 0.00 | 0.00 | 0.00 | 80 | 1013.0 |
| 20260504190046 | 16 | 342 | 3.2 | 6.4 | 0.00 | 0.00 | 0.00 | 79 | 1012.9 |
| 20260504185543 | 16 | 342 | 0.0 | 4.8 | 0.00 | 0.00 | 0.00 | 79 | 1012.7 |
| 20260504185046 | 16 | 342 | 0.0 | 8.0 | 0.00 | 0.00 | 0.00 | 79 | 1012.5 |
| 20260504184543 | 16 | 342 | 1.6 | 12.9 | 0.00 | 0.00 | 0.00 | 79 | 1012.5 |
| 20260504184043 | 16 | 329 | 6.4 | 12.9 | 0.00 | 0.00 | 0.00 | 78 | 1012.4 |
| 20260504183542 | 16 | 346 | 3.2 | 4.8 | 0.00 | 0.00 | 0.00 | 79 | 1012.7 |
| 20260504183042 | 16 | 346 | 0.0 | 4.8 | 0.00 | 0.00 | 0.00 | 79 | 1012.9 |
| 20260504182541 | 16 | 346 | 1.6 | 6.4 | 0.00 | 0.00 | 0.00 | 78 | 1012.9 |
| 20260504182041 | 16 | 346 | 1.6 | 6.4 | 0.00 | 0.00 | 0.00 | 78 | 1012.8 |
| 20260504181541 | 16 | 346 | 0.0 | 4.8 | 0.00 | 0.00 | 0.00 | 78 | 1012.8 |
| 20260504181040 | 16 | 346 | 3.2 | 4.8 | 0.00 | 0.00 | 0.00 | 77 | 1012.7 |
| 20260504180540 | 16 | 346 | 1.6 | 4.8 | 0.00 | 0.00 | 0.00 | 76 | 1012.7 |
| 20260504180040 | 16 | 346 | 1.6 | 6.4 | 0.00 | 0.00 | 0.00 | 75 | 1012.8 |
| 20260504175541 | 16 | 346 | 1.6 | 6.4 | 0.00 | 0.00 | 0.00 | 74 | 1012.9 |
| 20260504175039 | 17 | 346 | 1.6 | 8.0 | 0.00 | 0.00 | 0.00 | 73 | 1012.8 |
| 20260504174539 | 17 | 347 | 3.2 | 8.0 | 0.00 | 0.00 | 0.00 | 73 | 1012.9 |
| 20260504174040 | 17 | 346 | 3.2 | 9.7 | 0.00 | 0.00 | 0.00 | 72 | 1012.9 |
| 20260504173539 | 17 | 346 | 3.2 | 9.7 | 0.00 | 0.00 | 0.00 | 72 | 1012.9 |
| 20260504173039 | 17 | 348 | 1.6 | 8.0 | 0.00 | 0.00 | 0.00 | 72 | 1013.0 |
| 20260504172541 | 17 | 5 | 1.6 | 14.5 | 0.00 | 0.00 | 0.00 | 71 | 1013.1 |
| 20260504172038 | 17 | 5 | 3.2 | 14.5 | 0.00 | 0.00 | 0.00 | 72 | 1013.2 |
| 20260504171546 | 17 | 335 | 1.6 | 9.7 | 0.00 | 0.00 | 0.00 | 72 | 1013.2 |
| 20260504171038 | 17 | 335 | 3.2 | 9.7 | 0.00 | 0.00 | 0.00 | 71 | 1013.2 |
| 20260504170538 | 17 | 334 | 1.6 | 8.0 | 0.00 | 0.00 | 0.00 | 72 | 1013.1 |